Starlink 31845

operational
NORAD ID: 60129 Int'l Des: 2024-118 Owner: SPXS Country: US Constellation: starlink
LEOCIRCULAR

About Starlink 31845

Description loading...

Live Position

Loading 3D Globe...

Upcoming Passes

Altitude History

Altitude vs Time

uPlot chart will show altitude changes over time

Two-Line Element Set

1 60129U 24118S 25305.58727907 .00000056 00000-0 14025-4 0 9991
2 60129 53.1612 259.5868 0001349 82.1274 277.9880 15.30192519 76114
Epoch: Nov 1, 2025 • Age: 21 hours

Current Status

Altitude 492.8 km
Velocity 7.62 km/s
Sub-Earth Point -48.67°S, 82.04°W
Launch Date Jun 24, 2024
Age 1.3 years
Type internet

Technical Details

Classification Payload
Mass 730.00 kg
Dry Mass 700.00 kg
Total Mass 730.00 kg
Length 0.30 m
Diameter 4.10 m
Span 29.00 m
Shape Box + pan
Manufacturer SPXS
Bus Type Starlink V2M
Phase Status In Orbit
Owner/State SPXS/US

Large Constellations

Loading constellations...